FW3260 Weather Reports


Display with metric or nautical units.
time (UTC)temp
F
wind
direction
speed
MPH
gust
MPH
rain 1hr
in
rain 24hr
in
rain mn
in
humidity
%
barometer
mb
20260506165018 73 315 4.0 13.0 0.00 0.00 0.00 59 1008.3
20260506164019 72 293 5.0 12.0 0.00 0.00 0.00 61 1008.6
20260506163039 72 293 4.0 11.0 0.00 0.00 0.00 61 1008.7
20260506162018 72 315 4.0 14.0 0.00 0.00 0.00 61 1008.7
20260506161038 71 315 2.0 6.0 0.00 0.00 0.00 63 1008.9
20260506160018 71 315 3.0 10.0 0.00 0.00 0.00 64 1009.3
20260506155018 70 0 2.0 8.0 0.00 0.00 0.00 64 1009.4
20260506154018 71 293 5.0 12.0 0.00 0.00 0.00 64 1009.3
20260506153038 71 315 3.0 10.0 0.00 0.00 0.00 63 1009.4
20260506152018 71 338 3.0 8.0 0.00 0.00 0.00 64 1009.7
20260506151018 71 293 4.0 11.0 0.00 0.00 0.00 64 1009.7
20260506150018 71 293 3.0 8.0 0.00 0.00 0.00 65 1009.8
20260506145019 71 315 4.0 11.0 0.00 0.00 0.00 66 1009.7
20260506144018 70 0 4.0 9.0 0.00 0.00 0.00 66 1009.8
20260506143018 70 68 2.0 7.0 0.00 0.00 0.00 68 1009.8
20260506142018 69 293 2.0 4.0 0.00 0.00 0.00 69 1009.8
20260506141018 68 68 2.0 6.0 0.00 0.00 0.00 70 1009.7
20260506140018 68 293 3.0 7.0 0.00 0.00 0.00 71 1009.7
20260506135038 68 315 4.0 11.0 0.00 0.00 0.00 72 1010.0
20260506134019 68 23 3.0 7.0 0.00 0.00 0.00 72 1009.9
20260506133018 68 270 4.0 10.0 0.00 0.00 0.00 72 1010.0
20260506132018 68 315 3.0 10.0 0.00 0.00 0.00 73 1010.5
20260506131039 66 338 3.0 8.0 0.00 0.00 0.00 75 1010.4
20260506130018 66 315 3.0 9.0 0.00 0.00 0.00 74 1010.3
20260506125039 66 315 4.0 8.0 0.00 0.00 0.00 75 1010.3
20260506124018 65 315 4.0 9.0 0.00 0.00 0.00 76 1010.2
20260506123018 64 338 2.0 9.0 0.00 0.00 0.00 78 1010.3
20260506122118 64 315 4.0 11.0 0.00 0.00 0.00 79 1010.4
20260506121058 63 338 4.0 10.0 0.00 0.00 0.00 79 1010.5
20260506120018 63 293 3.0 10.0 0.00 0.00 0.00 80 1010.4
20260506115018 62 315 3.0 8.0 0.00 0.00 0.00 81 1010.4
20260506114018 61 0 3.0 7.0 0.00 0.00 0.00 82 1010.8
20260506113018 61 315 4.0 12.0 0.00 0.00 0.00 82 1010.7
20260506112058 61 293 3.0 6.0 0.00 0.00 0.00 83 1011.1
20260506111018 60 315 3.0 9.0 0.00 0.00 0.00 83 1010.9
20260506110018 60 315 2.0 6.0 0.00 0.00 0.00 84 1010.8
20260506105018 60 0 2.0 9.0 0.00 0.00 0.00 84 1010.7
20260506104018 59 0 2.0 5.0 0.00 0.00 0.00 84 1010.9
20260506103018 59 0 2.0 4.0 0.00 0.00 0.00 84 1010.5
20260506102019 59 0 1.0 3.0 0.00 0.00 0.00 84 1010.7
20260506101017 59 135 2.0 5.0 0.00 0.00 0.00 84 1010.7
20260506100017 59 90 1.0 4.0 0.00 0.00 0.00 83 1010.4
20260506095018 59 45 2.0 8.0 0.00 0.00 0.00 83 1010.6
20260506094038 59 338 2.0 4.0 0.00 0.00 0.00 83 1010.4
20260506093017 59 315 1.0 4.0 0.00 0.00 0.00 83 1010.4
20260506092017 59 315 2.0 5.0 0.00 0.00 0.00 82 1010.5
20260506091018 59 270 1.0 4.0 0.00 0.00 0.00 82 1010.4
20260506090017 59 0 2.0 6.0 0.00 0.00 0.00 81 1010.4
20260506085018 59 338 2.0 4.0 0.00 0.00 0.00 81 1010.6
20260506084020 60 45 2.0 7.0 0.00 0.00 0.00 80 1010.8
20260506083019 60 23 3.0 10.0 0.00 0.00 0.00 80 1010.6
20260506082019 60 315 2.0 11.0 0.00 0.00 0.00 79 1010.7
20260506081059 60 293 2.0 5.0 0.00 0.00 0.00 79 1010.5
20260506073040 61 338 3.0 8.0 0.00 0.00 0.00 76 1010.7
20260506072020 61 315 3.0 8.0 0.00 0.00 0.00 76 1010.5
20260506071019 62 315 2.0 12.0 0.00 0.00 0.00 76 1010.3
20260506062019 63 315 2.0 4.0 0.00 0.00 0.00 73 1010.3
20260506061019 63 293 3.0 10.0 0.00 0.00 0.00 72 1010.3
20260506051019 63 315 3.0 13.0 0.00 0.00 0.00 69 1010.6
20260506045019 63 315 3.0 9.0 0.00 0.00 0.00 69 1010.8
20260506044019 63 315 2.0 8.0 0.00 0.00 0.00 69 1010.8
20260506043019 63 315 3.0 11.0 0.00 0.00 0.00 69 1010.9
20260506042020 63 315 2.0 4.0 0.00 0.00 0.00 69 1010.9
20260506041019 63 315 3.0 5.0 0.00 0.00 0.00 69 1010.9
20260506040019 63 338 2.0 4.0 0.00 0.00 0.00 69 1011.0
20260506035019 63 315 3.0 10.0 0.00 0.00 0.00 69 1010.9
20260506034019 63 315 2.0 6.0 0.00 0.00 0.00 69 1010.8
20260506033020 63 315 2.0 6.0 0.00 0.00 0.00 69 1010.8
20260506032019 63 23 2.0 4.0 0.00 0.00 0.00 68 1010.7
20260506031019 63 293 2.0 6.0 0.00 0.00 0.00 68 1010.7
20260506030019 63 315 3.0 7.0 0.00 0.00 0.00 67 1010.8
20260506025019 63 315 3.0 9.0 0.00 0.00 0.00 67 1010.6
20260506024039 63 315 3.0 10.0 0.00 0.00 0.00 66 1010.7
20260506023019 64 0 2.0 7.0 0.00 0.00 0.00 66 1010.7
20260506022019 64 315 3.0 8.0 0.00 0.00 0.00 65 1010.7
20260506021019 64 0 2.0 7.0 0.00 0.00 0.00 65 1010.7
20260506020019 64 315 2.0 7.0 0.00 0.00 0.00 64 1010.5
20260506015019 65 315 2.0 6.0 0.00 0.00 0.00 63 1010.5
20260506014019 65 338 3.0 9.0 0.00 0.00 0.00 62 1010.4
20260506013019 65 270 3.0 8.0 0.00 0.00 0.00 62 1010.2
20260506012020 66 315 3.0 9.0 0.00 0.00 0.00 61 1010.2
20260506011019 66 293 3.0 6.0 0.00 0.00 0.00 61 1010.0
20260506010019 67 0 3.0 10.0 0.00 0.00 0.00 60 1009.8
20260506005020 67 315 4.0 16.0 0.00 0.00 0.00 60 1009.6
20260506004019 68 293 4.0 10.0 0.00 0.00 0.00 59 1009.6
20260506003020 68 315 4.0 9.0 0.00 0.00 0.00 57 1009.3
20260506002019 69 315 3.0 9.0 0.00 0.00 0.00 57 1009.2
20260506001019 69 180 3.0 12.0 0.00 0.00 0.00 55 1008.9
20260506000039 70 315 4.0 12.0 0.00 0.00 0.00 54 1008.7
20260505235019 71 315 4.0 10.0 0.00 0.00 0.00 53 1008.5
20260505234019 71 315 4.0 10.0 0.00 0.00 0.00 51 1008.3
20260505233019 72 293 4.0 11.0 0.00 0.00 0.00 50 1008.2
20260505232019 73 293 4.0 12.0 0.00 0.00 0.00 49 1008.2
20260505231019 73 315 4.0 15.0 0.00 0.00 0.00 48 1007.9
20260505230019 74 315 4.0 10.0 0.00 0.00 0.00 47 1007.9
20260505225019 74 315 5.0 13.0 0.00 0.00 0.00 47 1007.9
20260505224019 74 315 5.0 16.0 0.00 0.00 0.00 46 1007.7
20260505223019 75 293 5.0 17.0 0.00 0.00 0.00 45 1007.6
20260505222039 75 270 5.0 12.0 0.00 0.00 0.00 45 1007.3
20260505221019 76 315 5.0 15.0 0.00 0.00 0.00 46 1007.0
20260505220019 77 338 4.0 12.0 0.00 0.00 0.00 44 1007.4
20260505215019 78 315 4.0 13.0 0.00 0.00 0.00 44 1007.6
20260505214019 78 315 5.0 14.0 0.00 0.00 0.00 44 1007.4
20260505213019 79 293 4.0 9.0 0.00 0.00 0.00 44 1007.3
20260505212019 79 293 7.0 16.0 0.00 0.00 0.00 41 1007.2
20260505211039 80 315 6.0 16.0 0.00 0.00 0.00 41 1007.0
20260505210018 81 315 5.0 16.0 0.00 0.00 0.00 40 1006.7
20260505205018 81 315 4.0 11.0 0.00 0.00 0.00 39 1006.8
20260505204019 81 23 4.0 11.0 0.00 0.00 0.00 39 1006.9
20260505203018 82 293 7.0 15.0 0.00 0.00 0.00 37 1006.7
20260505202059 82 338 6.0 17.0 0.00 0.00 0.00 37 1006.7
20260505201018 83 315 5.0 17.0 0.00 0.00 0.00 37 1006.8
20260505200018 83 293 4.0 12.0 0.00 0.00 0.00 38 1006.9
20260505195018 82 315 6.0 16.0 0.00 0.00 0.00 37 1006.9
20260505194018 82 293 6.0 15.0 0.00 0.00 0.00 38 1007.1
20260505193019 82 293 5.0 18.0 0.00 0.00 0.00 38 1007.0
20260505192018 82 315 5.0 13.0 0.00 0.00 0.00 40 1007.2
20260505191018 82 293 6.0 15.0 0.00 0.00 0.00 40 1007.5
20260505190018 83 315 6.0 17.0 0.00 0.00 0.00 38 1007.3
20260505185018 82 315 5.0 12.0 0.00 0.00 0.00 38 1007.4
20260505184018 83 315 6.0 16.0 0.00 0.00 0.00 39 1007.5
20260505183019 83 293 4.0 14.0 0.00 0.00 0.00 40 1007.7
20260505182038 83 270 5.0 13.0 0.00 0.00 0.00 39 1008.0
20260505181038 83 338 6.0 14.0 0.00 0.00 0.00 40 1008.1
20260505180038 83 293 6.0 20.0 0.00 0.00 0.00 38 1007.8
20260505175019 83 293 3.0 8.0 0.00 0.00 0.00 39 1008.1
20260505174038 82 315 6.0 14.0 0.00 0.00 0.00 40 1008.3
20260505173018 82 315 3.0 10.0 0.00 0.00 0.00 41 1008.6
20260505172018 81 293 4.0 15.0 0.00 0.00 0.00 42 1008.9
20260505171018 81 315 3.0 8.0 0.00 0.00 0.00 45 1009.1
20260505170018 80 315 4.0 14.0 0.00 0.00 0.00 44 1009.1